Location: Tamazert
(32.6352°N, 5.2072°W)
Time: 04:16:18
(UTC+00:00)

Vanguard 1 Rocket - Pass Details

Date: 07 October 2022
Orbit: 650 x 4225 km, 34.3° (Epoch: 05 December)

Event Time Altitude Azimuth Distance (km) Brightness Sun altitude
Rises 15:58:09 0° 214° (SW) 7,989 13.1 23.5°
Reaches altitude 10° 16:03:48 10° 208° (SSW) 7,212 12.9 22.4°
Maximum altitude 16:27:41 47° 144° (SE) 4,803 11.1 17.7°
Drops below altitude 10° 16:46:27 10° 78° (ENE) 5,884 11.0 13.9°
Sets 16:50:23 0° 73° (ENE) 6,500 11.1 13.1°
